Location: Albert Place
(40.7505°N, 111.9230°W)
Time: 22:49:46
(UTC+00:00)

Cosmos 2219 Rocket - Pass Details

Date: 13 December 2025
Orbit: 827 x 845 km, 71.0° (Epoch: 14 January)

Event Time Altitude Azimuth Distance (km) Brightness Sun altitude
Exits shadow 13:47:57 - 330° (NNW) 2,828 4.5 -10.3°
Reaches altitude 10° 13:48:55 10° 328° (NNW) 2,463 4.1 -10.1°
Maximum altitude 13:54:25 55° 252° (WSW) 1,005 2.4 -9.1°
Drops below altitude 10° 13:59:51 10° 176° (S) 2,435 5.0 -8.2°
Sets 14:02:18 0° 172° (S) 3,362 5.8 -7.8°
